Dewpoint
69 69 69 70 70 70 70 70 70 70 70 70 70 70 70 70 70 70 71 70 71 72 72 72 73 73 72 73 73 73 74 74 75 75 75 75 75 75 75 74 74 74 74 74 73 73 73 72 72 71 71 70 70 69 68 68 68 68 68 67 67 66 65 64 63 62 64 66 65 65 67 65 66 67 67 66 67 68 69 69 69 68 68 68 68
69 69 70 70 69 70 70 70 70 70 70 70 70 69 70 70 70 71 70 71 71 71 72 72 72 72 72 73 73 73 73 74 74 75 75 75 74 74 74 74 74 74 74 74 74 73 73 73 72 72 71 70 70 69 69 68 67 67 68 67 67 66 66 65 64 64 62 66 66 68 67 66 66 69 67 67 66 68 67 68 68 68 68 68 68
68 69 69 70 70 70 70 70 70 70 69 69 69 69 69 70 71 70 70 70 71 71 71 71 72 73 72 73 73 73 73 73 74 74 74 74 74 74 74 74 74 74 73 74 73 74 73 73 72 72 71 70 70 69 69 69 68 68 68 68 68 67 67 67 66 65 64 64 66 65 66 67 66 67 68 67 68 68 68 67 66 67 68 68 68
68 69 69 69 69 70 70 70 69 69 69 69 69 69 69 69 71 70 70 70 71 72 72 72 72 72 72 72 73 73 73 73 73 74 74 74 74 74 74 74 74 74 74 74 73 73 73 73 72 72 72 71 71 71 70 69 69 69 68 68 69 68 68 67 67 66 65 64 65 66 66 66 68 68 68 68 67 68 67 68 68 67 67 68 68
67 68 68 69 69 69 69 69 69 69 69 69 69 69 69 69 70 70 70 70 70 71 72 72 72 72 72 72 72 72 73 73 73 73 74 74 74 74 74 74 74 74 74 74 74 74 73 73 73 73 72 71 71 70 71 70 70 69 68 69 68 68 68 68 68 67 66 65 65 66 67 68 68 69 68 67 68 68 68 68 67 68 68 67 67
67 67 68 68 69 69 69 69 69 69 69 69 69 69 69 69 69 70 70 70 71 71 71 72 72 72 72 72 72 72 73 73 73 73 73 74 74 74 74 74 74 74 74 74 74 74 73 73 73 73 72 71 71 71 71 71 70 69 69 69 69 68 68 68 68 68 67 66 66 65 67 66 67 67 68 68 67 67 67 67 68 68 68 67 66
67 67 67 68 68 68 69 69 69 69 69 69 69 69 69 69 69 69 70 70 70 70 70 71 72 72 72 72 72 72 72 73 73 73 73 74 74 74 74 74 74 74 74 74 74 74 73 73 73 73 73 72 72 71 71 71 71 70 70 70 69 68 68 68 68 67 67 67 66 67 66 67 67 65 68 68 68 67 66 66 66 68 68 68 67
67 67 67 68 68 68 68 69 69 69 69 70 70 69 69 69 69 70 70 70 70 70 70 70 71 72 72 72 73 73 73 73 73 73 73 73 73 73 74 74 74 74 74 74 74 73 74 73 73 73 73 73 72 72 72 71 71 71 71 70 70 69 68 68 67 67 67 66 66 65 66 66 67 67 67 67 67 67 67 66 65 65 67 68 68
66 67 67 68 68 69 69 69 69 70 70 70 70 70 70 70 70 70 70 70 70 70 71 71 71 71 72 72 72 73 72 72 72 72 73 73 73 73 73 73 73 73 74 73 74 74 74 74 73 73 73 72 70 70 70 69 71 71 71 71 70 70 69 68 68 67 67 66 66 66 66 66 66 66 66 66 66 64 67 67 66 66 67 67 67
67 67 67 68 68 69 70 70 70 70 70 70 70 70 70 70 70 70 70 70 70 71 71 71 71 71 71 72 72 72 72 72 70 65 67 72 73 73 73 73 73 73 73 73 73 73 73 73 73 73 70 69 68 67 66 66 66 69 71 71 71 70 69 69 68 68 67 66 66 66 65 65 65 65 65 66 66 67 67 67 66 66 67 66 67
67 67 67 68 69 69 70 70 70 70 70 70 71 71 70 70 70 70 70 70 70 71 71 70 70 71 71 71 72 72 72 71 65 63 63 65 71 73 73 73 73 74 73 73 73 73 73 74 74 74 72 69 70 66 66 65 65 64 65 66 68 70 70 69 68 68 67 67 66 67 65 65 65 66 66 65 66 66 66 67 66 66 66 65 64
67 68 68 69 69 69 70 70 70 70 70 70 71 71 71 71 71 71 70 70 71 70 70 70 70 70 70 71 71 72 72 67 64 63 63 62 65 72 73 73 73 73 73 73 73 73 73 73 73 74 74 74 74 73 69 65 64 64 64 64 64 65 66 69 69 69 68 67 67 67 66 66 66 67 66 65 65 66 67 67 67 66 66 65 65
68 69 69 69 70 70 70 70 70 71 71 71 71 71 71 71 71 70 70 70 71 71 71 70 70 70 70 70 70 71 71 66 63 62 62 62 62 66 72 72 73 73 73 73 73 73 73 73 73 74 74 71 72 74 74 73 66 63 63 63 63 63 63 63 64 69 70 69 68 68 67 67 67 67 67 67 68 66 67 66 67 66 66 66 66
68 69 69 70 70 70 70 70 70 71 71 71 71 71 71 71 70 70 70 71 71 71 70 70 70 71 70 70 70 70 71 66 62 61 61 61 61 63 71 72 73 73 73 73 73 73 73 73 73 73 74 74 74 74 74 74 74 73 70 68 68 67 63 61 61 62 65 68 69 68 69 69 68 68 69 69 68 67 66 66 67 66 67 66 67
69 69 69 70 70 70 71 71 70 71 71 71 71 71 71 71 71 70 70 70 70 70 70 70 70 71 70 70 70 69 69 64 61 60 60 59 60 62 70 72 72 73 73 73 73 73 73 74 74 73 73 74 74 73 74 73 73 73 73 72 71 70 70 68 66 65 66 65 67 68 69 70 70 70 70 70 69 68 68 68 68 67 67 68 67
69 69 70 70 70 71 71 71 71 71 71 71 71 71 71 71 71 71 71 70 71 70 71 71 70 70 71 70 70 70 69 62 60 59 59 59 60 66 70 71 72 72 72 73 73 74 74 74 73 73 73 73 70 65 68 73 73 73 73 72 72 72 71 68 65 66 68 68 68 67 67 68 65 70 70 69 70 70 69 68 68 67 66 65 65
69 70 70 70 71 71 71 71 71 71 71 71 71 71 71 71 71 71 71 71 70 70 70 70 71 70 70 71 70 70 70 65 60 58 58 58 59 68 69 70 71 71 72 72 73 73 73 73 74 73 73 73 69 64 63 65 72 72 72 72 72 71 71 72 65 62 62 61 61 62 62 62 62 61 60 60 64 67 68 68 66 67 66 64 63
69 70 70 71 71 71 71 71 71 71 71 71 71 71 71 71 71 71 71 70 70 70 70 70 70 70 70 70 70 70 70 67 60 57 57 56 61 69 70 70 71 71 71 72 73 73 73 71 73 73 73 73 66 63 63 65 70 72 72 72 72 72 72 72 71 70 62 60 60 60 61 61 61 60 60 60 60 61 65 65 66 68 66 65 64
69 70 70 71 71 72 72 72 71 71 71 71 71 71 71 72 72 72 71 71 71 71 71 70 70 70 70 70 67 69 70 67 60 57 56 55 61 69 70 70 70 71 71 71 72 72 73 72 70 69 71 70 64 63 62 64 71 72 72 72 71 71 72 72 72 72 72 71 70 68 67 65 66 66 66 62 61 66 66 66 67 68 66 65 65
70 70 70 71 72 72 72 72 72 72 72 72 72 72 72 72 72 72 71 71 71 71 71 70 70 70 70 70 70 70 70 70 68 57 56 55 57 69 70 70 70 71 71 71 71 72 72 73 71 63 61 62 62 61 60 59 69 72 72 72 72 71 72 73 73 72 72 72 72 72 71 70 69 69 69 69 69 69 68 68 67 67 67 66 66
70 71 72 72 72 72 73 72 72 72 72 72 72 72 72 72 72 72 71 71 71 71 71 70 70 70 70 71 70 70 70 70 70 58 55 54 55 60 70 70 71 71 71 71 71 71 72 72 73 66 61 59 59 58 58 57 59 70 72 73 72 72 70 72 72 72 72 72 72 72 72 72 72 71 71 71 70 70 69 68 68 68 68 67 66
71 70 71 72 72 73 73 73 73 72 73 73 73 72 73 72 72 72 72 72 72 71 71 71 71 71 71 70 70 71 71 67 70 60 56 54 54 55 67 70 70 71 71 71 72 71 72 72 73 68 62 59 57 56 55 56 57 65 69 63 63 61 67 68 69 69 70 70 71 70 71 71 71 72 72 72 71 70 70 70 69 69 68 67 67
74 71 71 71 72 73 74 73 73 73 73 73 73 73 73 73 73 73 72 72 72 71 72 71 71 71 71 71 70 71 71 70 63 68 57 53 53 53 57 65 63 71 71 71 71 71 72 73 72 68 62 57 55 54 54 54 55 62 57 56 57 58 61 66 67 67 68 68 68 69 69 69 70 71 70 69 70 70 70 70 70 70 70 70 70
74 73 71 71 71 72 73 73 73 73 73 74 73 73 73 73 73 73 73 72 72 71 71 71 71 70 70 70 70 70 71 71 66 61 63 54 53 53 53 56 60 68 71 71 72 72 72 73 72 62 58 56 53 53 53 54 61 56 54 55 56 58 63 65 65 66 66 66 67 68 68 69 70 71 71 70 70 71 71 71 70 70 70 70 71
74 71 71 70 71 71 72 73 73 74 74 74 73 73 73 73 73 73 73 72 72 71 72 71 71 71 70 70 70 70 71 71 70 66 60 57 54 53 53 54 55 57 68 71 72 69 54 51 51 52 52 51 52 53 52 52 52 52 52 53 58 63 64 65 65 66 66 66 67 68 68 69 70 71 71 71 71 70 69 69 69 69 68 70 71
74 74 71 70 70 71 71 72 72 73 73 74 74 74 73 73 72 73 72 72 72 72 71 71 71 71 70 70 70 70 71 71 71 71 65 62 59 54 54 54 56 56 60 67 58 56 56 55 54 56 57 60 67 68 68 67 60 58 55 55 62 63 64 65 66 66 66 66 66 66 66 66 66 68 68 68 68 67 67 66 66 66 67 67 67
74 74 73 72 70 71 71 71 71 72 73 73 74 74 74 73 73 72 72 72 72 71 71 71 71 70 70 71 71 71 71 72 72 72 71 69 67 65 60 59 57 58 61 62 61 63 64 65 67 62 62 61 62 61 62 64 66 66 66 65 66 66 66 66 66 65 65 64 64 63 64 65 66 65 65 65 65 65 65 64 64 64 65 66 66
73 73 72 73 71 71 71 73 72 71 72 73 73 73 73 73 73 72 72 72 72 71 71 71 70 70 70 71 71 71 72 72 72 72 70 70 69 68 65 63 62 62 62 64 65 66 67 64 62 66 66 66 65 64 64 64 65 64 64 63 62 63 62 63 64 63 63 62 62 61 62 63 63 63 63 63 63 62 63 63 63 63 63 64 63
73 72 71 73 72 72 72 73 73 72 68 61 54 51 53 63 73 73 71 73 73 72 72 72 71 71 72 72 72 72 72 71 71 65 71 64 68 67 66 65 65 65 63 60 66 67 67 67 65 64 64 62 62 62 63 63 62 62 61 61 61 60 60 60 60 59 59 59 59 60 60 60 60 61 60 60 60 60 61 61 61 61 61 61 60
70 71 71 72 73 73 73 73 72 69 65 61 58 56 51 45 47 59 65 58 54 55 64 72 73 74 73 72 66 73 72 72 59 56 55 55 56 58 59 58 58 62 57 57 64 65 64 63 63 63 63 63 62 61 61 60 60 59 59 58 59 59 58 58 58 58 58 58 59 59 59 59 59 59 59 59 58 58 59 58 59 60 60 59 58
69 70 71 72 73 73 72 70 69 67 65 64 62 61 61 57 45 43 48 49 45 46 53 59 61 65 71 67 53 46 48 46 46 46 46 46 46 47 47 48 49 49 52 61 64 63 62 62 61 61 61 61 60 59 59 59 58 58 58 58 58 58 58 58 58 58 58 58 59 59 58 58 58 57 57 57 57 57 58 59 59 58 58 57 57
70 70 71 71 72 72 70 69 67 66 65 65 65 65 64 63 60 48 43 45 44 42 41 43 51 58 59 58 56 55 47 43 44 44 44 44 44 44 44 45 46 49 51 55 61 62 61 61 60 60 60 59 58 58 58 58 58 58 58 58 58 58 58 58 58 59 58 57 57 57 57 57 57 56 56 56 56 57 57 57 58 58 59 59 59
69 70 72 73 72 71 69 67 67 66 66 66 66 66 66 65 62 59 55 46 44 43 43 42 42 43 45 46 49 48 46 43 43 43 43 43 44 44 45 45 46 48 53 59 60 60 60 60 59 59 58 58 58 58 58 57 58 58 58 58 58 58 58 59 59 58 57 56 56 56 56 56 56 57 57 57 57 56 57 57 57 58 58 58 57
70 70 71 72 71 70 68 67 67 67 67 67 67 67 66 65 64 63 63 62 59 53 48 44 42 42 41 42 42 42 42 43 44 44 44 45 46 47 48 50 46 48 54 61 60 59 59 59 58 58 58 58 58 58 58 58 58 58 58 58 58 58 59 59 58 57 56 56 56 56 56 55 56 56 56 56 56 56 56 56 56 56 56 56 56
68 72 73 71 70 68 68 67 67 67 67 67 67 65 64 64 63 64 64 63 62 59 56 54 47 44 47 45 43 43 43 44 45 46 46 47 47 48 52 61 60 59 59 59 59 59 59 58 58 58 58 58 58 58 58 59 59 58 58 58 58 58 58 58 57 57 57 57 56 56 56 56 56 56 56 56 56 56 56 56 56 56 56 56 56
67 67 67 67 66 66 66 66 66 67 66 65 65 64 64 64 63 62 60 60 58 57 56 55 53 49 44 42 42 43 43 44 44 45 45 46 50 53 59 59 59 59 58 58 59 58 58 58 58 58 58 58 58 58 58 58 58 58 58 58 58 58 57 57 57 57 57 57 57 57 56 57 57 57 56 56 56 55 55 55 56 56 56 56 56
66 65 65 64 64 64 63 64 64 64 63 63 63 64 64 63 63 62 61 59 59 58 57 57 57 57 55 54 48 43 43 44 45 46 47 48 51 58 59 59 59 59 58 58 58 58 58 58 58 58 58 58 58 58 57 58 57 58 56 58 57 58 58 58 58 58 58 58 58 58 58 57 57 57 56 56 56 55 55 55 56 55 55 55 54
65 65 64 64 64 64 64 63 63 62 63 63 64 64 63 63 62 62 61 60 60 60 59 60 59 59 58 58 59 57 54 50 51 52 52 51 56 60 59 59 59 58 57 58 58 58 57 57 57 58 58 57 57 57 57 57 57 57 57 57 58 58 55 57 57 57 58 58 57 58 58 57 58 57 57 56 56 56 55 54 55 55 55 55 55
63 61 60 61 63 64 64 65 65 64 64 63 63 63 63 62 62 61 61 61 61 61 60 60 59 59 58 58 58 59 58 59 59 59 59 59 59 59 59 59 58 58 58 58 58 58 58 58 57 57 57 57 57 57 57 57 57 57 57 57 58 58 58 58 58 58 58 58 58 58 58 58 58 57 57 57 56 56 56 55 55 55 54 55 55
63 63 62 61 63 63 64 65 64 64 64 63 63 63 63 62 62 61 60 60 59 58 57 57 56 56 57 58 57 58 59 59 59 59 59 59 59 59 59 59 59 58 58 58 58 58 58 58 57 57 57 57 57 57 57 57 57 57 57 56 57 58 58 58 58 58 58 57 58 58 58 58 57 57 58 58 57 56 56 55 55 55 55 54 55
62 63 63 60 61 63 64 63 63 63 63 62 62 62 62 62 62 61 59 58 57 57 56 55 54 53 52 51 51 53 59 58 58 58 58 58 58 58 58 58 58 58 58 58 58 58 58 58 57 57 58 58 57 57 57 57 56 56 56 56 55 56 57 58 58 58 58 57 58 58 58 58 57 57 57 58 54 55 56 56 55 55 55 55 54
60 60 61 60 61 61 61 62 62 63 63 63 62 62 62 61 60 59 59 58 58 57 56 55 55 54 51 49 49 50 58 59 58 58 58 58 58 58 58 58 58 58 58 58 58 58 57 57 56 56 57 57 57 57 56 57 57 57 56 56 56 55 56 58 57 58 58 58 57 57 58 57 57 57 57 53 57 56 56 55 55 55 54 54 54
60 59 59 60 59 59 59 59 59 59 59 59 59 60 60 59 59 58 58 58 58 57 56 55 55 55 53 49 51 51 55 56 57 56 55 55 56 56 56 57 57 57 57 57 57 57 58 58 58 57 57 57 56 57 57 58 57 57 57 57 56 56 56 56 57 57 58 57 57 57 57 57 57 57 57 56 56 56 55 55 55 54 55 54 54
58 58 58 58 58 58 58 58 57 57 57 58 57 56 56 55 55 55 55 54 54 53 53 53 53 52 51 51 50 51 52 52 52 52 53 53 53 53 53 54 54 54 53 53 53 54 54 54 54 54 54 54 54 55 55 55 56 56 56 57 57 56 56 56 57 57 57 57 57 57 57 57 57 57 57 56 56 56 56 56 55 55 54 54 54
56 56 55 55 55 55 55 55 55 55 56 55 55 54 55 53 53 52 52 52 52 52 51 51 50 50 50 49 49 49 49 49 51 50 50 50 50 50 50 51 51 51 50 50 50 50 50 50 50 50 50 50 50 51 52 52 52 52 53 53 54 54 54 54 55 55 56 56 57 57 57 58 58 59 59 59 57 56 56 57 56 55 56 55 55
55 54 54 54 54 54 53 53 54 53 53 53 52 52 52 52 52 51 51 50 50 49 48 48 48 48 48 48 48 48 48 47 48 48 48 48 48 48 48 48 48 47 47 47 47 47 47 47 47 47 47 48 48 48 49 49 49 49 49 48 48 48 47 47 48 50 53 55 56 57 57 57 58 58 58 60 58 57 56 57 57 56 56 55 55
54 54 54 53 53 53 53 52 51 51 50 51 50 50 49 49 49 50 50 49 49 49 48 47 47 46 46 46 46 46 46 46 46 46 46 47 47 46 47 46 46 45 45 45 45 44 44 44 44 45 45 46 46 46 47 47 47 47 47 47 46 45 45 44 44 46 49 52 55 56 56 57 57 58 58 58 58 58 57 57 57 57 56 55 55
54 53 53 53 52 52 51 51 51 51 50 49 49 49 48 49 47 46 46 46 46 46 46 46 45 45 45 45 45 45 45 44 45 45 45 45 45 46 46 46 45 44 44 43 43 43 43 42 42 42 42 42 43 43 44 45 45 45 44 44 44 42 41 41 43 45 46 48 50 54 56 56 57 57 57 57 58 57 57 58 58 58 57 56 56
52 52 51 51 50 49 49 49 49 47 47 47 46 46 45 44 44 43 43 42 43 44 44 44 44 44 44 44 44 44 44 44 43 44 44 44 44 45 46 46 46 45 44 43 42 42 42 42 43 42 42 42 42 42 42 42 42 41 41 41 40 39 37 38 40 44 42 45 49 52 54 56 56 56 56 57 57 57 57 56 57 58 58 57 57
50 50 49 47 46 47 47 47 46 45 46 45 45 45 45 44 42 42 41 41 41 41 41 42 42 42 42 43 43 43 42 42 41 41 41 42 42 42 42 42 43 43 43 43 43 43 42 42 42 41 42 42 42 42 42 41 41 40 40 38 37 36 36 37 39 40 40 44 46 48 50 53 55 56 57 57 57 56 56 56 56 56 57 57 57
49 47 46 46 45 44 43 43 42 42 41 40 40 40 41 41 42 43 43 42 42 42 41 39 39 40 41 41 42 41 40 40 40 40 40 40 41 41 41 41 41 41 41 41 41 41 41 41 40 40 40 41 41 41 42 42 42 41 38 37 36 36 36 37 39 37 37 39 47 49 51 52 53 55 55 55 54 53 52 53 54 53 53 52 53